Theta_e
315 317 324 324 326 325 326 325 329 330 332 332 335 336 338 340 343 345 339 340 339 327 327 327 327 327 323 322 320 319 320 320 320 319 318 317 317 317 317 317 316 316 316 316 316 316 316 316 315
315 320 326 324 325 327 326 327 328 330 333 335 335 335 337 342 341 339 338 339 334 327 327 327 326 327 323 322 321 320 319 319 319 319 318 318 317 317 317 317 317 317 317 317 317 317 318 318 318
323 330 324 323 325 328 327 329 330 332 336 336 336 336 338 341 341 340 339 338 329 327 327 327 326 326 326 321 321 320 319 319 319 318 318 318 318 318 318 318 317 318 318 317 318 318 319 319 320
329 329 323 324 325 326 328 329 329 333 338 337 337 336 337 340 341 340 338 334 328 327 327 327 326 325 325 324 321 321 320 319 319 318 318 318 318 318 318 318 318 318 318 318 318 318 319 319 320
329 326 324 323 324 326 327 328 329 334 336 336 336 337 337 339 340 335 334 331 328 328 328 327 327 325 324 325 322 320 320 320 319 319 319 318 318 318 319 319 319 319 319 319 319 319 319 319 320
329 326 326 325 325 326 327 327 329 335 336 336 337 337 337 338 341 335 332 339 336 328 328 328 327 326 323 323 323 321 320 320 319 319 319 319 318 318 319 319 320 320 320 320 319 319 319 319 320
330 330 328 326 325 325 326 327 328 329 334 336 337 338 338 338 340 338 338 340 340 342 333 329 328 327 324 322 322 322 320 319 319 319 318 318 318 318 319 319 320 320 320 320 320 320 320 320 320
326 329 330 329 328 326 327 327 327 328 329 332 334 338 339 339 340 338 337 338 339 341 343 335 331 329 327 323 321 321 321 319 318 318 318 318 318 318 318 319 319 320 321 321 321 321 321 321 321
324 330 332 330 329 328 327 327 327 326 327 331 334 338 338 340 340 337 336 337 339 340 341 343 338 332 329 326 323 321 321 320 319 318 318 318 318 318 318 318 319 320 320 321 321 321 321 321 321
326 330 331 330 329 329 328 328 328 327 326 328 333 336 338 339 338 338 336 337 338 340 342 344 343 342 335 330 329 325 321 321 321 321 319 318 317 317 317 318 318 319 320 320 321 322 322 322 322
323 328 329 330 330 329 329 328 328 326 326 327 331 335 335 339 339 339 338 338 338 339 341 343 343 342 339 339 338 337 336 333 329 323 321 319 317 316 316 317 318 318 319 320 321 322 322 322 323
321 323 326 328 329 330 330 329 329 328 326 325 328 332 335 335 337 338 338 338 338 338 338 341 343 343 342 342 342 337 337 334 332 330 329 323 319 317 316 317 318 320 320 319 320 321 322 323 325
319 321 323 324 326 328 328 329 330 329 327 327 326 328 334 335 334 336 336 335 335 334 334 336 336 336 337 339 346 343 337 331 328 330 330 331 331 327 319 318 323 326 328 326 321 321 322 325 330
318 319 319 321 326 326 327 328 329 329 328 327 327 327 329 333 333 334 334 334 334 334 334 334 334 338 335 335 333 342 342 341 336 335 334 332 336 337 334 329 329 335 336 335 332 325 323 330 336
317 319 319 320 320 322 324 326 328 329 329 328 328 328 328 330 333 332 331 333 331 332 333 333 333 334 336 335 334 331 334 338 340 344 343 338 338 341 341 336 333 333 339 337 336 334 338 340 341
315 317 319 319 320 321 321 323 324 326 329 329 329 329 329 329 328 330 332 333 332 331 331 331 332 333 334 333 332 330 328 329 334 338 344 345 342 342 342 340 337 336 334 339 336 337 335 336 339
313 314 316 318 320 319 320 323 324 323 326 328 329 330 330 331 331 330 331 333 332 332 331 332 333 333 335 336 334 331 329 328 330 336 341 343 344 343 344 342 339 340 337 335 337 336 335 338 338
314 313 314 315 316 319 320 321 323 323 324 325 327 328 329 331 330 331 331 331 332 332 333 332 332 333 332 334 334 335 332 328 326 326 332 343 343 343 344 343 341 340 339 337 337 337 335 334 338
315 314 314 315 316 317 320 321 322 322 323 324 326 328 327 328 329 330 331 330 331 331 331 330 329 328 330 329 330 336 329 324 327 330 330 336 343 343 344 344 343 342 340 338 336 336 334 335 336
315 314 314 314 315 316 317 318 321 323 324 324 325 325 326 327 329 330 328 328 331 329 328 327 327 326 327 326 323 328 332 331 332 336 338 343 343 344 344 344 343 343 340 339 337 336 334 335 335
314 314 314 313 314 314 316 317 320 321 323 322 323 325 325 325 326 327 328 329 330 328 327 327 327 326 326 325 326 330 330 329 336 342 342 345 344 344 344 345 344 342 341 340 337 336 335 334 335
313 314 314 313 313 313 315 318 321 321 323 323 324 323 324 325 325 325 326 326 327 328 328 327 328 328 326 326 327 333 334 326 325 344 345 345 344 344 344 344 342 343 343 340 338 337 336 334 335
314 315 313 313 313 313 313 315 317 321 322 324 324 324 323 323 325 325 325 326 326 325 324 324 324 324 325 329 331 330 335 337 337 339 346 346 346 345 345 343 341 343 343 339 340 337 335 332 337
314 314 313 312 312 314 314 315 316 318 321 322 324 324 324 324 323 323 324 324 324 325 327 327 326 327 327 329 329 333 330 334 341 345 346 347 346 344 342 342 341 341 340 339 339 337 334 337 337
315 312 311 312 312 312 313 314 317 317 319 320 322 322 322 323 324 324 324 324 325 325 325 325 326 326 328 329 328 328 327 337 340 346 346 347 345 341 342 340 341 340 340 339 336 336 339 337 335
314 314 314 311 311 312 312 314 315 316 319 319 320 321 321 322 324 323 323 323 324 324 324 324 326 326 331 334 331 333 334 348 346 348 347 346 342 342 340 341 340 340 337 340 340 339 336 334 333
315 313 315 314 314 313 315 312 315 316 316 318 321 322 321 322 322 323 323 326 325 324 326 329 332 330 334 344 345 343 343 346 350 349 347 343 342 341 341 341 340 338 340 339 337 335 332 334 331
312 313 315 316 316 312 313 312 313 316 317 318 321 323 322 324 324 325 328 329 330 327 331 339 341 344 346 345 345 347 348 349 349 345 341 342 342 342 341 343 342 340 338 337 334 333 333 331 330
314 315 314 315 317 318 317 314 315 322 320 320 321 322 323 325 333 340 333 332 334 342 346 347 347 347 346 346 346 346 348 348 345 345 345 345 345 342 342 341 338 338 337 335 331 331 332 329 329
311 314 315 317 314 313 313 316 316 317 316 314 322 322 326 332 337 342 340 340 341 346 348 348 348 347 346 345 345 346 345 345 344 344 343 343 342 340 339 338 336 336 334 332 330 330 334 332 329
Wind_Speed
6 5 2 9 6 7 16 20 21 23 16 13 9 4 5 17 15 10 24 25 20 27 25 21 20 16 16 17 17 19 19 18 17 16 15 14 13 10 9 8 7 6 6 6 6 5 6 5 4
4 4 6 10 8 13 14 19 23 22 11 7 3 2 7 8 25 23 23 26 22 25 26 23 20 17 17 17 17 17 17 17 16 15 14 13 12 10 9 7 5 5 5 4 4 5 5 5 5
5 5 7 5 10 16 17 20 17 14 4 5 8 11 9 7 20 26 24 26 24 23 23 21 20 19 17 17 17 16 16 16 16 16 15 13 11 10 8 7 6 5 4 3 2 3 4 4 5
5 10 11 9 17 21 26 24 29 12 16 9 11 8 6 7 18 20 28 23 22 23 25 21 20 19 18 16 17 17 17 17 17 16 15 14 13 11 10 9 7 6 5 4 2 1 1 3 4
10 10 11 15 20 21 22 26 29 11 6 14 18 14 15 5 10 22 27 22 23 24 24 22 19 19 20 18 18 18 17 18 17 17 16 15 14 13 12 10 9 9 7 6 4 3 1 1 3
14 16 12 13 20 22 21 30 23 7 12 12 17 16 16 13 20 24 26 22 19 24 23 22 19 19 20 20 19 19 19 19 19 18 18 17 16 15 14 13 12 11 10 9 8 6 5 3 3
17 13 18 21 20 19 21 26 20 10 14 21 19 18 20 23 24 23 24 21 21 18 20 21 19 19 21 21 20 20 20 20 19 20 19 19 19 19 18 17 16 15 13 13 11 9 7 6 4
22 12 23 21 18 23 23 20 26 19 17 22 24 2 12 20 19 26 25 24 24 22 16 18 20 19 22 24 23 22 22 21 21 21 21 21 22 22 21 21 20 18 17 16 14 12 9 8 6
26 15 18 24 22 20 23 19 18 21 19 25 19 6 14 20 21 28 28 27 25 26 23 16 16 16 18 23 24 24 24 24 23 24 25 25 26 27 26 25 23 21 20 20 17 13 13 12 8
20 18 29 24 19 20 22 21 25 20 23 23 15 4 2 12 25 24 27 26 22 25 26 23 20 18 14 18 20 22 26 26 26 26 28 30 30 31 29 28 27 25 25 23 19 17 18 13 11
27 27 26 30 32 28 23 26 21 17 19 27 23 16 10 19 28 30 21 21 20 22 23 26 23 19 16 12 18 18 20 21 25 29 31 32 33 33 32 31 30 30 30 29 24 24 21 16 15
26 35 35 35 38 34 26 30 28 25 28 33 25 22 22 17 20 28 26 24 16 12 14 21 23 17 14 15 21 21 23 20 19 20 25 32 35 37 36 35 34 33 33 33 29 28 22 19 16
30 29 38 38 36 35 36 32 32 24 31 33 30 25 25 27 22 16 15 11 12 10 9 6 10 14 18 19 25 27 25 20 18 19 20 23 28 32 37 36 34 35 31 31 32 30 24 22 16
29 34 34 38 35 31 29 30 31 33 29 32 34 30 19 19 18 18 17 15 16 16 14 15 9 14 22 23 23 27 26 28 22 23 24 26 28 29 29 31 35 31 32 28 25 30 27 20 17
27 27 25 28 32 29 32 26 32 36 32 30 33 36 32 26 39 33 28 23 21 21 17 20 20 17 20 25 24 24 26 27 28 27 29 28 31 32 30 29 32 34 28 25 26 18 23 20 21
22 20 21 29 27 31 24 30 28 40 33 33 35 34 36 33 34 27 26 30 23 26 27 29 25 20 22 27 27 26 28 26 27 26 29 32 33 35 34 31 33 33 34 26 28 25 27 32 29
17 21 24 25 25 27 26 31 27 37 34 29 33 34 37 35 34 37 35 34 31 28 29 28 26 25 18 18 21 24 26 26 28 26 28 29 33 36 37 34 33 30 31 34 29 32 30 28 26
18 21 23 27 26 25 26 29 28 34 31 33 35 36 37 36 42 36 32 35 34 29 26 25 27 26 28 20 25 27 29 32 32 32 30 26 31 36 36 34 32 31 30 34 31 32 33 31 27
19 22 27 28 27 24 24 25 28 27 32 29 29 29 39 42 40 37 32 43 34 27 24 29 26 27 29 28 30 34 38 38 36 33 32 30 30 34 36 35 30 30 33 35 35 30 29 30 28
20 20 25 25 26 23 27 28 27 22 24 29 30 34 33 37 38 36 43 41 27 22 22 27 31 33 33 34 36 34 27 24 24 25 27 25 29 33 34 34 26 33 35 30 33 31 31 31 26
18 21 21 24 22 24 25 26 28 27 22 24 30 31 37 36 37 33 28 28 26 27 29 30 32 35 34 36 34 30 28 31 24 23 27 27 29 32 33 32 26 29 29 30 33 32 32 30 25
21 21 21 21 19 17 20 18 22 21 23 21 28 31 25 24 29 33 34 36 35 31 25 26 29 31 35 36 35 34 33 31 32 21 26 28 28 33 34 30 25 26 26 30 28 32 33 31 24
23 21 20 22 20 22 23 15 19 22 22 22 22 29 28 29 31 33 33 34 34 36 38 37 40 43 41 37 33 33 30 25 20 22 24 26 26 29 30 27 23 28 25 26 26 31 33 27 25
28 20 22 18 17 17 24 19 21 19 23 24 18 28 35 39 43 43 40 41 41 39 36 33 38 37 38 36 36 32 31 31 21 23 27 29 29 26 24 27 24 27 22 25 23 23 24 25 21
27 16 12 15 14 17 22 21 19 21 24 24 22 23 30 26 27 35 41 40 39 34 33 30 29 26 31 34 34 34 31 27 25 28 30 30 26 26 26 24 25 26 23 22 21 23 22 22 17
26 9 9 19 16 17 20 15 17 19 22 33 33 35 25 21 29 19 16 18 22 28 29 27 24 25 29 31 31 29 26 24 23 29 33 27 24 23 20 22 22 22 26 21 22 19 16 13 13
19 11 20 12 19 14 19 27 21 22 23 25 25 32 18 21 17 14 20 22 25 25 26 19 20 24 21 23 26 24 23 24 27 27 22 21 18 20 22 21 21 22 20 17 16 13 11 12 11
15 9 12 5 12 17 17 22 12 20 19 24 24 19 26 9 12 20 22 22 22 20 18 20 16 18 19 19 22 23 26 23 21 17 18 18 19 19 24 22 20 18 16 14 13 12 11 13 12
12 3 3 11 6 5 8 12 12 17 22 21 22 20 9 15 14 18 28 24 17 15 14 17 17 18 19 19 22 22 24 23 20 21 21 20 21 21 22 20 17 16 14 12 11 12 12 13 15
17 14 11 6 10 9 12 21 15 23 28 29 23 9 9 12 9 9 13 16 17 21 19 22 22 23 22 22 23 25 23 22 23 23 23 22 21 17 15 14 12 11 11 10 9 13 8 11 14
Wind_Direction
234 205 319 265 244 230 245 237 256 264 257 189 27 48 258 325 48 97 137 146 161 152 153 165 172 168 166 161 159 159 157 153 152 153 149 150 152 152 147 139 129 116 98 87 82 81 81 69 53
179 202 256 276 236 244 240 234 239 245 251 122 115 259 282 85 122 136 123 139 156 149 152 165 175 177 175 171 170 168 168 167 167 166 162 162 162 163 160 156 144 126 106 90 76 64 63 69 64
199 223 237 229 233 250 260 226 225 234 73 133 174 218 219 109 127 135 139 153 150 154 156 170 177 185 184 180 179 181 179 181 181 178 177 172 173 177 177 174 174 160 135 125 99 66 48 38 40
220 211 251 254 256 253 253 282 289 169 146 177 222 193 242 65 125 154 154 163 154 156 161 172 182 192 192 189 189 193 191 193 195 192 189 186 187 190 193 195 194 195 184 180 170 116 36 20 9
253 255 244 246 245 254 274 271 275 291 144 200 211 193 212 141 130 153 153 161 160 160 167 172 186 197 200 198 199 200 203 203 205 205 203 201 201 204 206 208 210 209 206 205 207 208 235 299 332
235 232 247 246 255 266 262 266 280 263 263 237 214 223 193 172 151 161 158 157 163 168 173 173 186 200 207 206 206 207 209 212 212 213 213 213 214 215 219 218 219 220 218 219 215 215 222 238 265
241 251 247 253 255 250 259 281 286 248 252 264 217 213 230 163 161 159 159 155 162 171 185 180 192 201 210 213 212 213 215 217 221 223 223 222 223 224 223 226 225 225 225 227 224 221 225 236 254
239 249 262 263 263 266 272 251 252 248 261 267 264 306 321 172 185 172 170 173 168 168 187 202 201 208 211 215 217 218 220 223 226 229 231 231 232 232 229 229 229 229 231 231 229 228 236 241 254
240 241 247 248 254 263 273 280 282 269 274 242 260 129 177 176 178 185 179 176 175 171 179 214 223 211 216 221 223 225 226 227 229 232 235 234 235 235 234 233 233 233 234 234 232 234 237 235 249
237 244 239 244 250 273 279 270 276 255 254 257 235 133 19 135 151 233 186 188 180 175 175 186 225 237 229 225 232 225 233 235 237 238 240 237 236 239 236 239 237 235 236 236 233 233 237 241 254
229 246 247 251 250 248 265 283 285 276 269 253 239 188 208 185 199 201 221 194 202 199 190 186 216 232 247 231 233 248 241 243 246 244 246 246 242 239 240 240 239 236 235 234 230 232 236 243 253
239 242 246 255 264 280 284 275 262 244 256 263 262 240 194 207 219 213 219 208 217 192 243 202 210 213 234 229 218 243 249 249 242 245 247 248 248 244 239 240 244 242 238 237 234 234 237 242 250
251 247 247 248 253 266 274 272 272 243 253 266 270 259 230 209 219 223 223 233 220 202 233 140 211 231 246 221 212 227 243 247 256 262 261 253 252 250 245 239 240 249 243 245 238 236 235 248 250
258 261 260 257 254 243 251 264 263 261 247 260 270 263 241 230 254 240 238 241 250 256 256 251 246 238 254 251 227 225 226 232 249 261 267 273 268 260 249 245 233 225 247 250 242 238 233 240 243
274 274 270 264 259 253 252 248 251 255 251 251 260 267 268 223 208 219 245 258 264 255 261 264 258 252 249 253 252 230 228 235 229 243 257 266 268 263 257 246 234 226 234 244 237 237 224 241 233
278 281 258 248 253 255 262 253 244 252 243 248 256 261 263 259 248 233 228 237 238 250 250 251 251 244 247 253 257 251 234 235 243 247 240 246 258 263 250 243 235 223 220 235 223 231 213 224 225
249 256 258 266 247 246 241 259 247 244 247 233 245 255 260 260 253 247 238 238 241 239 245 235 235 228 239 243 247 250 248 247 248 247 250 241 248 256 252 241 229 229 224 221 229 221 226 226 232
263 247 248 252 259 265 237 240 252 251 245 240 239 247 258 257 252 253 241 246 248 245 220 229 237 236 235 239 250 253 255 255 257 259 249 242 241 250 250 240 228 222 228 221 223 226 230 229 234
269 266 272 278 288 291 255 253 245 239 248 236 239 236 246 254 259 256 253 246 253 230 231 245 249 250 246 243 245 237 247 256 258 260 262 241 238 241 245 240 230 224 224 221 223 225 231 227 223
275 285 281 287 288 284 280 281 281 246 240 242 234 231 240 248 248 247 250 252 238 222 233 245 246 255 249 259 253 248 250 256 260 251 256 246 230 237 237 241 235 222 220 223 217 224 224 225 226
264 262 278 284 291 287 284 275 268 273 272 253 266 247 227 238 253 256 253 249 242 242 248 251 250 254 255 261 252 253 248 237 230 233 238 238 230 230 236 240 231 218 224 222 222 221 221 216 221
279 280 274 282 287 274 268 273 261 263 257 260 267 257 257 248 246 254 257 257 253 252 250 253 255 254 259 257 250 240 242 244 235 220 231 236 232 227 232 234 222 207 222 213 223 221 219 218 224
279 285 279 280 281 275 264 258 265 266 257 245 239 251 249 262 261 246 248 248 250 260 264 257 253 253 249 244 245 246 227 231 232 221 222 233 234 225 224 221 209 203 214 213 222 222 228 218 225
291 278 275 271 274 262 262 255 259 256 257 267 259 237 231 232 239 244 244 249 250 250 246 244 250 248 241 236 240 237 225 225 221 213 216 222 228 226 213 207 206 207 208 203 219 230 209 210 219
304 260 263 259 251 253 256 257 259 257 268 266 265 272 279 263 238 230 231 235 238 238 241 236 240 233 234 233 235 233 229 225 216 211 217 219 224 210 210 202 203 206 201 204 215 205 208 213 217
282 279 293 275 273 286 296 285 282 281 270 269 272 255 279 287 233 240 230 241 245 237 226 231 227 232 219 220 234 233 236 213 208 208 213 222 216 208 203 196 196 196 188 201 202 201 208 209 221
272 267 232 311 280 272 279 277 259 276 265 270 258 257 264 264 262 248 241 239 228 235 215 215 220 218 216 213 213 214 205 191 202 208 219 222 200 188 184 182 185 182 191 189 199 203 206 219 231
262 302 309 262 266 267 256 271 270 266 242 256 250 239 236 230 256 250 244 235 236 212 200 193 206 202 197 197 191 192 181 186 197 203 171 164 169 177 172 178 181 179 178 193 206 207 212 214 223
257 228 303 313 202 258 289 273 220 353 340 304 250 239 173 240 249 302 224 223 172 169 169 169 172 170 172 169 168 174 170 175 177 170 162 168 169 174 172 176 169 167 182 203 223 186 227 217 229
257 236 192 224 250 246 276 275 305 8 344 336 288 231 257 210 206 266 142 164 172 162 159 158 157 160 162 164 163 163 163 166 167 163 162 167 160 152 150 156 166 182 197 210 207 205 208 219 237